Overview Statistics Trail Chart Weather Telemetry Raw packets
 

This is the latest recevied weather packets stored in our database for station/object OE6ACM-10. If no packets are shown the sender has not sent any weather packets the latest 10 day(s).

<< 100 101 102 103 104 105 106 >>
Time Temp. Humidity Pressure Rain* Wind** Luminosity Snow
1787927559 38.89° C 100% 924 hPa - - - -
1787927259 40° C 100% 923.9 hPa - - - -
1787926959 41.67° C 100% 923.9 hPa - - - -
1787926659 42.22° C 100% 923.8 hPa - - - -
1787926359 42.22° C 100% 923.8 hPa - - - -
1787926059 42.22° C 100% 923.9 hPa - - - -
1787925759 42.78° C 100% 923.8 hPa - - - -
1787925459 43.33° C 100% 923.7 hPa - - - -
1787925159 42.78° C 100% 923.9 hPa - - - -
1787924859 42.78° C 100% 923.9 hPa - - - -
1787924559 43.33° C 100% 924.1 hPa - - - -
1787924259 42.22° C 100% 924 hPa - - - -
1787923959 41.67° C 100% 923.9 hPa - - - -
1787923659 41.11° C 100% 924.1 hPa - - - -
1787923359 41.11° C 100% 924.1 hPa - - - -
1787923059 41.67° C 100% 924.1 hPa - - - -
1787922759 41.67° C 100% 924.1 hPa - - - -
1787922459 42.78° C 100% 924.1 hPa - - - -
1787922159 42.22° C 100% 924.3 hPa - - - -
1787921859 42.22° C 100% 924.3 hPa - - - -
1787921559 42.22° C 100% 924.2 hPa - - - -
1787921259 41.11° C 100% 924.2 hPa - - - -
1787920959 40.56° C 100% 924.3 hPa - - - -
1787920659 40.56° C 100% 924.3 hPa - - - -
1787920359 40° C 100% 924.4 hPa - - - -

* Rain since midnight (hover to see other rain measurements)
** Current wind speed in m/s (hover to see current wind gust speed)